Preview of NWS' New Version of Forecast
This preview is not operational and should not be used for support decisions.

Regional Weather Roundup (RWR)

Issued by National Weather Service (NWS)

                            
000
ASUS43 KBIS 211202
RWRND 

NORTH DAKOTA REGIONAL WEATHER ROUNDUP
NATIONAL WEATHER SERVICE BISMARCK ND
600 AM CST THU FEB 21 2019

NOTE: "FAIR" INDICATES FEW OR NO CLOUDS BELOW 12,000 FEET WITH NO
SIGNIFICANT WEATHER AND/OR OBSTRUCTIONS TO VISIBILITY.


NDZ001>003-009>011-017-211300-
NORTHWEST NORTH DAKOTA
  
CITY           SKY/WX    TMP DP  RH WIND       PRES   REMARKS
WILLISTON      CLOUDY    -1  -7  75 CALM      29.98R                  
6HR MIN TEMP:  -2; 6HR MAX TEMP:   5; 6HR PCP:  0.01;                

MINOT          CLOUDY     7   2  80 W12       29.96R WCI  -8          
$$
 
NDZ018>021-031>035-040>046-211300-
SOUTHWEST NORTH DAKOTA
  
CITY           SKY/WX    TMP DP  RH WIND       PRES   REMARKS
BISMARCK       LGT SNOW   2  -1  88 W3        29.98R FOG              
6HR MIN TEMP:  -1; 6HR MAX TEMP:  10; 6HR PCP: TRACE;                

DICKINSON      CLOUDY     0  -5  79 W9        29.89R WCI -15          
GARRISON         N/A      5   1  83 W5        29.95R WCI  -4          
6HR MIN TEMP:   2; 6HR MAX TEMP:   7;                                

HETTINGER ARPT CLEAR     -6 -10  83 NW7       29.93R WCI -20          
$$
 
NDZ004>008-012>016-024-026-027-054-211300-
NORTHEAST NORTH DAKOTA
  
CITY           SKY/WX    TMP DP  RH WIND       PRES   REMARKS
GRAND FORKS    CLOUDY    13  10  88 N12       29.95R WCI  -1          
GRND FRKS AFB  LGT SNOW  14  11  88 N10       29.95R WCI   2          
DEVILS LAKE    FLURRIES  10   7  87 NW8       29.96R WCI  -2          
$$
 
NDZ022-023-025-028>030-036>039-047>053-211300-
SOUTHEAST NORTH DAKOTA
  
CITY           SKY/WX    TMP DP  RH WIND       PRES   REMARKS
FARGO          PTCLDY    10   8  92 NW9       29.95R WCI  -3          
6HR MIN TEMP:  10; 6HR MAX TEMP:  18; 6HR PCP: TRACE;                

JAMESTOWN      CLEAR      7   4  87 NW13      29.94R WCI  -9          
$$